| time (UTC) | temp F | wind direction | speed MPH | gust MPH | rain 1hr in | rain 24hr in | rain mn in | humidity % | barometer mb |
| 20260505031547 | 75 | 132 | 2.0 | 4.0 | 0.00 | 0.00 | 0.00 | 85 | 1016.5 |
| 20260505030043 | 76 | 115 | 4.0 | 7.0 | 0.00 | 0.00 | 0.00 | 85 | 1016.7 |
| 20260505024541 | 76 | 117 | 3.0 | 6.0 | 0.00 | 0.00 | 0.00 | 85 | 1016.6 |
| 20260505023044 | 76 | 111 | 3.0 | 6.0 | 0.00 | 0.00 | 0.00 | 86 | 1016.5 |
| 20260505021541 | 76 | 113 | 3.0 | 7.0 | 0.00 | 0.00 | 0.00 | 85 | 1016.4 |
| 20260505020037 | 77 | 141 | 1.0 | 4.0 | 0.00 | 0.00 | 0.00 | 84 | 1016.2 |
| 20260505014549 | 77 | 117 | 3.0 | 7.0 | 0.00 | 0.00 | 0.00 | 84 | 1016.0 |
| 20260505013036 | 78 | 104 | 1.0 | 4.0 | 0.00 | 0.00 | 0.00 | 85 | 1016.1 |
| 20260505011534 | 79 | 71 | 3.0 | 5.0 | 0.00 | 0.00 | 0.00 | 86 | 1015.9 |
| 20260505010034 | 79 | 65 | 4.0 | 8.0 | 0.00 | 0.00 | 0.00 | 86 | 1015.9 |
| 20260505004537 | 80 | 48 | 2.0 | 4.0 | 0.00 | 0.00 | 0.00 | 82 | 1015.6 |
| 20260505003032 | 81 | 90 | 2.0 | 4.0 | 0.00 | 0.00 | 0.00 | 81 | 1015.5 |
| 20260505001532 | 81 | 76 | 2.0 | 4.0 | 0.00 | 0.00 | 0.00 | 81 | 1015.3 |
| 20260505000035 | 81 | 59 | 2.0 | 6.0 | 0.00 | 0.00 | 0.00 | 81 | 1015.2 |
| 20260504234530 | 81 | 115 | 2.0 | 3.0 | 0.00 | 0.00 | 0.00 | 80 | 1015.2 |
| 20260504233032 | 82 | 188 | 3.0 | 8.0 | 0.00 | 0.00 | 0.00 | 79 | 1015.0 |
| 20260504231529 | 82 | 154 | 4.0 | 8.0 | 0.00 | 0.00 | 0.00 | 78 | 1014.9 |
| 20260504230029 | 83 | 142 | 6.0 | 11.0 | 0.00 | 0.00 | 0.00 | 77 | 1014.8 |
| 20260504224529 | 83 | 156 | 9.0 | 15.0 | 0.00 | 0.00 | 0.00 | 76 | 1014.7 |
| 20260504223027 | 83 | 189 | 7.0 | 15.0 | 0.00 | 0.00 | 0.00 | 76 | 1014.6 |
| 20260504221529 | 84 | 158 | 8.0 | 14.0 | 0.00 | 0.00 | 0.00 | 75 | 1014.5 |
| 20260504220025 | 84 | 164 | 6.0 | 18.0 | 0.00 | 0.00 | 0.00 | 74 | 1014.2 |
| 20260504214523 | 85 | 229 | 4.0 | 11.0 | 0.00 | 0.00 | 0.00 | 74 | 1014.1 |
| 20260504213044 | 85 | 157 | 5.0 | 16.0 | 0.00 | 0.00 | 0.00 | 73 | 1014.0 |
| 20260504211522 | 85 | 161 | 8.0 | 12.0 | 0.00 | 0.00 | 0.00 | 71 | 1014.0 |
| 20260504210026 | 85 | 238 | 8.0 | 14.0 | 0.00 | 0.00 | 0.00 | 71 | 1014.0 |
| 20260504204522 | 85 | 179 | 7.0 | 18.0 | 0.00 | 0.00 | 0.00 | 70 | 1014.0 |
| 20260504203020 | 86 | 189 | 8.0 | 18.0 | 0.00 | 0.00 | 0.00 | 70 | 1014.0 |
| 20260504201525 | 86 | 154 | 8.0 | 17.0 | 0.00 | 0.00 | 0.00 | 70 | 1013.9 |
| 20260504200019 | 86 | 117 | 6.0 | 19.0 | 0.00 | 0.00 | 0.00 | 70 | 1013.9 |
| 20260504194520 | 86 | 175 | 10.0 | 20.0 | 0.00 | 0.00 | 0.00 | 69 | 1014.0 |
| 20260504193017 | 87 | 133 | 7.0 | 15.0 | 0.00 | 0.00 | 0.00 | 67 | 1014.0 |
| 20260504191518 | 87 | 186 | 9.0 | 16.0 | 0.00 | 0.00 | 0.00 | 68 | 1014.0 |
| 20260504190023 | 87 | 163 | 9.0 | 21.0 | 0.00 | 0.00 | 0.00 | 67 | 1014.1 |
| 20260504184515 | 87 | 146 | 13.0 | 21.0 | 0.00 | 0.00 | 0.00 | 65 | 1014.2 |
| 20260504183020 | 88 | 163 | 10.0 | 17.0 | 0.00 | 0.00 | 0.00 | 65 | 1014.3 |
| 20260504181511 | 88 | 241 | 11.0 | 20.0 | 0.00 | 0.00 | 0.00 | 64 | 1014.3 |
| 20260504180011 | 88 | 160 | 5.0 | 16.0 | 0.00 | 0.00 | 0.00 | 62 | 1014.5 |
| 20260504174509 | 88 | 171 | 10.0 | 22.0 | 0.00 | 0.00 | 0.00 | 60 | 1014.6 |
| 20260504173015 | 87 | 144 | 14.0 | 25.0 | 0.00 | 0.00 | 0.00 | 58 | 1014.7 |
| 20260504171510 | 87 | 163 | 13.0 | 25.0 | 0.00 | 0.00 | 0.00 | 57 | 1015.1 |
| 20260504100105 | 71 | 150 | 4.0 | 9.0 | 0.00 | 0.00 | 0.00 | 86 | 1015.6 |
| 20260504090118 | 72 | 107 | 1.0 | 7.0 | 0.00 | 0.00 | 0.00 | 84 | 1015.6 |
| 20260504081553 | 71 | 132 | 3.0 | 5.0 | 0.00 | 0.00 | 0.00 | 86 | 1015.0 |
| 20260504044538 | 73 | 113 | 2.0 | 4.0 | 0.00 | 0.00 | 0.00 | 85 | 1016.0 |
| 20260504043030 | 73 | 113 | 2.0 | 4.0 | 0.00 | 0.00 | 0.00 | 85 | 1016.2 |
| 20260504041524 | 73 | 75 | 1.0 | 3.0 | 0.00 | 0.00 | 0.00 | 86 | 1016.3 |
| 20260504040022 | 73 | 74 | 3.0 | 6.0 | 0.00 | 0.00 | 0.00 | 86 | 1016.4 |
| 20260504034532 | 73 | 53 | 3.0 | 6.0 | 0.00 | 0.00 | 0.00 | 86 | 1016.7 |
| 20260504033027 | 74 | 102 | 2.0 | 4.0 | 0.00 | 0.00 | 0.00 | 86 | 1016.7 |